Flag for U.S.A. Weather past 2 weeks in Riverside, California, U.S.A.

Now
58 °F

Mostly cloudy.


Feels Like: 58 °F
Forecast: 54 / 67 °F
Wind: 5 mph from Northwest

Location: Riverside Municipal Airport

Current Time: Apr 25, 2015 at 9:16:58 AM

Latest Report: Apr 25, 2015 at 8:53 AM


Visibility: 10 mi

Pressure: 29.95 "Hg

Humidity: 75%

Dew point: 50 °F

Location of RiversideLocation

Historic Weather in Riverside — Graph

°F

Riverside temperature yesterday

Maximum temperature yesterday: 63 °F (at 2:53 PM)
Minimum temperature yesterday: 57 °F (at 1:53 AM)
Average temperature yesterday: 59 °F

Past Weeks' High & Low Weather Summary

 TemperatureHumidityPressure
High85 °F (Apr 17, 1:53 PM)90% (Apr 14, 3:53 AM)30.07 "Hg (Apr 14, 3:53 AM)
Low51 °F (Apr 11, 4:53 AM)5% (Apr 15, 5:53 PM)29.76 "Hg (Apr 20, 3:53 PM)
Average64 °F50%29.92 "Hg
* Reported Apr 10 7:53 AM — Apr 25 7:53 AM, Riverside, Weather by CustomWeather, © 2015

Note: Actual official high and low records may vary slightly from our data, if they occured in-between our weather recording intervals... More about our weather records

Advertising

Riverside weather history for previous 24 hours

 ConditionsComfort  
Time TempWeatherWind HumidityBarometerVisibility
7:53 AM
Sat, Apr 25
56 °FOvercast.3 mph81%29.94 "Hg10 mi
6:53 AM56 °FMostly cloudy.3 mph81%29.94 "Hg10 mi
5:53 AM56 °FOvercast.No wind81%29.94 "Hg10 mi
4:53 AM56 °FMostly cloudy.3 mph81%29.94 "Hg10 mi
3:53 AM56 °FOvercast.8 mph81%29.94 "Hg10 mi
2:53 AM56 °FOvercast.5 mph81%29.94 "Hg10 mi
1:53 AM57 °FMostly cloudy.6 mph81%29.96 "Hg10 mi
12:53 AM57 °FMostly cloudy.No wind81%29.96 "Hg10 mi
11:53 PM
Fri, Apr 24
57 °FOvercast.6 mph81%29.96 "Hg10 mi
10:53 PM57 °FMostly cloudy.6 mph81%29.98 "Hg10 mi
9:53 PM58 °FMostly cloudy.7 mph78%29.98 "Hg10 mi
8:53 PM58 °FOvercast.6 mph78%29.96 "Hg10 mi
7:53 PM59 °FOvercast.6 mph72%29.94 "Hg10 mi
6:53 PM61 °FOvercast.10 mph67%29.94 "Hg10 mi
5:53 PM62 °FOvercast.9 mph65%29.94 "Hg10 mi
3:53 PM63 °FOvercast.9 mph65%29.94 "Hg10 mi
2:53 PM63 °FOvercast.8 mph63%29.96 "Hg10 mi
1:53 PM62 °FOvercast.6 mph65%29.97 "Hg10 mi
12:53 PM61 °FOvercast.9 mph67%29.97 "Hg10 mi
11:53 AM62 °FOvercast.6 mph60%29.97 "Hg10 mi
10:53 AM62 °FOvercast.5 mph60%29.98 "Hg10 mi
9:53 AM60 °FOvercast.No wind67%29.97 "Hg10 mi
Weather by CustomWeather, © 2015

See weather overviewHow to use our weather pages